Wind_Speed
27 28 29 30 31 32 33 34 35 35 36 37 37 38 38 39 39 40 41 42 43 44 46 47 48 49 49 50 50 51 51 52 53 54 55 56 57 58 59 61 62 64 66
31 32 33 34 35 36 37 37 38 39 39 40 41 42 42 43 43 43 44 44 45 46 47 48 49 50 51 51 52 53 53 54 55 56 57 58 59 60 61 63 64 66 67
35 36 36 38 39 39 40 41 42 42 43 44 44 45 46 47 47 47 47 47 48 48 49 50 51 52 52 53 54 55 55 56 57 58 59 60 61 62 63 65 66 68 69
39 40 40 41 42 43 44 45 45 46 47 47 48 49 50 50 51 51 51 51 51 51 51 52 52 53 54 54 55 56 57 58 59 60 61 62 63 64 65 67 68 69 71
43 43 44 45 45 46 47 48 49 50 50 51 51 52 53 53 54 54 54 54 54 54 54 54 54 54 55 56 56 57 58 59 61 62 63 64 65 66 67 69 70 71 73
47 47 47 48 49 49 50 51 52 53 54 54 54 55 55 56 56 57 57 57 57 57 56 56 56 56 57 57 58 59 60 61 62 63 65 66 67 68 69 70 72 73 75
49 51 51 51 52 53 53 54 56 56 57 57 58 58 58 58 58 59 59 59 59 59 59 58 58 58 59 59 60 61 61 63 64 65 67 68 69 69 70 72 73 74 75
52 53 54 54 55 56 56 57 58 59 59 60 60 61 61 60 60 60 59 59 59 60 60 60 60 60 60 60 61 62 64 65 66 67 68 69 70 71 71 72 74 75 76
54 55 56 58 58 59 59 59 60 61 62 62 62 63 63 63 62 60 58 58 59 60 61 61 61 61 61 61 62 64 65 66 67 68 68 69 70 70 72 73 74 76 77
56 57 58 59 60 61 61 62 63 63 64 65 65 64 65 64 63 62 60 59 59 60 61 60 60 61 62 62 63 64 65 66 67 68 68 69 69 70 72 73 75 76 78
58 59 60 61 62 63 64 64 65 66 66 66 66 66 64 63 62 62 61 60 60 60 61 60 60 61 62 62 63 64 65 66 67 67 68 69 69 71 72 74 76 77 79
59 60 61 63 64 65 65 66 67 67 67 67 66 65 64 63 63 62 61 60 61 61 61 60 61 62 62 63 64 64 65 66 66 67 68 69 70 71 73 75 77 79 81
60 61 63 64 65 66 66 67 67 67 67 66 66 66 65 64 63 63 63 62 62 62 61 61 62 63 63 64 64 65 65 66 67 67 68 69 71 73 75 76 78 80 82
62 63 64 65 65 65 66 66 66 66 66 66 65 65 65 64 64 64 64 64 64 63 61 61 63 64 65 65 66 66 66 66 67 68 69 71 72 74 76 77 79 81 82
63 64 64 65 65 64 64 64 64 65 66 65 65 65 65 65 65 64 65 65 65 64 62 62 64 65 66 66 67 67 67 67 68 69 71 72 74 75 77 78 79 80 81
64 64 64 64 63 63 63 64 65 65 65 65 65 66 66 66 66 66 66 66 66 65 63 62 64 65 67 68 68 68 68 68 69 70 71 73 74 76 77 78 78 77 76
62 62 63 64 64 64 64 64 64 64 65 65 66 66 66 66 66 66 66 66 65 66 64 63 64 66 67 68 68 68 69 69 69 70 71 73 74 75 76 76 75 73 72
60 61 61 62 63 63 63 64 63 63 64 65 65 65 65 66 66 66 66 65 65 65 65 64 64 66 67 68 68 68 69 69 70 70 71 72 73 74 74 73 71 70 69
59 59 60 61 61 61 61 61 61 62 63 63 64 64 64 65 64 65 64 64 65 65 65 64 64 65 66 67 67 68 69 69 69 68 69 70 71 71 70 69 67 66 65
58 58 59 59 59 59 59 60 61 62 63 63 63 63 63 63 63 64 64 64 64 64 64 64 64 64 64 65 67 68 68 67 67 67 68 69 69 68 67 65 64 63 62
58 58 57 57 57 58 59 60 61 62 62 62 62 61 61 62 62 62 62 62 63 63 63 63 63 63 63 65 66 67 66 66 65 65 67 67 67 66 63 61 60 59 59
57 56 56 57 57 58 59 61 61 61 61 61 61 61 62 62 61 62 62 62 62 63 63 63 63 63 63 64 65 65 65 65 64 62 65 64 63 61 58 57 56 56 56
56 56 56 57 58 59 61 62 63 62 61 60 61 61 61 61 61 61 61 61 62 62 62 63 62 62 62 63 64 64 64 64 63 62 64 61 59 57 55 54 54 54 54
57 57 57 58 59 59 61 61 62 62 61 60 60 60 60 59 59 59 60 61 61 61 61 62 62 61 61 61 62 62 62 62 60 59 60 59 55 54 53 51 52 53 52
57 58 58 59 59 59 61 61 61 61 60 60 59 59 58 58 58 59 60 60 60 60 61 61 61 60 59 59 60 61 61 61 59 55 55 57 54 52 50 48 49 50 49
57 57 58 59 60 60 60 60 60 59 59 58 58 58 58 58 58 59 59 58 58 58 59 59 58 58 57 57 58 59 59 59 57 52 51 53 52 52 47 45 47 47 44
Wind_Direction
293 294 295 297 298 298 298 298 298 299 299 300 301 301 301 299 298 295 292 288 284 281 279 277 275 274 273 273 272 271 271 270 269 269 268 267 266 264 263 262 262 261 261
290 292 293 295 295 296 297 297 296 296 297 297 298 299 299 299 298 297 294 291 287 284 281 278 276 275 273 273 272 271 271 271 270 269 268 267 266 265 264 262 261 260 259
288 290 291 292 293 294 295 295 295 295 295 295 296 297 298 298 298 297 295 292 290 286 284 281 279 277 275 274 273 273 272 272 271 271 270 269 268 266 265 263 262 260 259
287 288 289 291 292 293 294 294 294 294 295 295 295 296 296 297 297 296 295 294 292 289 286 284 281 279 277 276 275 275 274 273 273 272 271 270 269 268 266 264 263 261 260
286 287 288 289 291 292 293 293 293 294 294 294 294 295 295 295 295 295 295 294 293 290 288 285 283 281 279 278 277 277 276 276 275 275 274 273 271 270 268 267 265 263 261
285 287 288 289 290 291 292 292 293 293 293 293 293 293 294 294 294 294 294 294 292 291 289 287 285 283 281 280 280 279 278 278 277 277 276 275 274 272 271 269 267 265 263
285 286 288 289 290 290 291 292 292 292 293 293 293 292 293 293 293 293 293 293 292 291 289 288 286 285 283 283 282 281 280 280 279 279 278 277 276 275 273 271 270 268 266
284 286 288 288 289 290 291 291 291 292 292 292 293 293 292 292 291 292 292 292 291 290 289 289 288 286 285 284 284 283 283 282 282 281 281 279 278 277 275 274 272 270 268
285 286 287 288 289 289 290 291 291 291 292 291 292 293 293 292 291 290 290 290 289 289 289 289 289 288 287 286 286 286 285 285 284 283 283 281 280 279 277 276 275 273 271
284 285 286 287 288 289 290 290 291 291 291 292 292 292 292 292 292 291 290 289 289 289 289 289 290 289 288 288 287 287 287 286 286 285 284 283 282 280 279 278 277 275 274
284 285 286 286 287 288 289 290 290 290 291 292 292 292 292 291 292 292 291 290 290 289 289 290 291 291 290 290 289 289 288 288 287 286 285 284 283 282 281 280 279 278 276
284 284 285 285 286 287 288 289 290 291 292 292 293 293 292 292 292 292 292 291 291 291 291 292 292 291 291 290 290 290 290 289 288 287 286 285 284 284 283 283 281 280 279
283 284 284 285 286 287 288 289 290 291 292 292 293 293 293 293 292 292 292 291 291 291 292 292 292 292 291 291 291 291 291 290 289 288 287 286 286 286 285 285 284 283 282
284 284 284 285 286 287 288 289 290 291 292 293 293 293 293 293 292 292 292 291 292 292 292 293 292 292 292 292 292 292 292 291 290 289 288 288 288 288 288 287 287 286 285
284 284 285 286 286 286 287 289 290 291 292 293 293 292 293 293 293 292 292 292 292 292 292 293 293 293 293 293 293 293 293 292 291 291 290 290 290 290 290 290 289 288 287
284 285 285 286 287 287 287 288 289 290 291 293 292 292 292 293 292 292 292 292 292 292 292 292 292 293 293 294 293 294 293 293 293 293 292 292 292 293 293 292 291 289 287
285 285 286 286 287 287 288 288 289 290 291 292 292 292 292 292 292 292 292 292 292 292 292 292 293 293 293 293 294 294 294 295 295 294 294 294 294 295 295 294 292 290 288
285 285 285 286 287 287 288 288 289 290 291 292 292 292 292 291 292 292 292 292 292 291 292 292 293 293 293 294 294 294 295 295 296 295 295 296 296 296 296 295 293 291 289
286 286 286 287 289 289 290 289 289 290 291 291 292 291 291 291 292 292 292 292 292 291 292 293 293 294 294 294 294 295 295 296 296 296 297 297 297 297 296 295 293 291 289
288 288 288 289 290 290 291 290 290 290 291 292 292 292 291 291 291 291 292 292 292 292 292 293 294 294 294 294 295 295 296 296 297 297 297 298 298 298 297 296 294 292 289
289 289 289 290 290 291 291 291 291 291 292 292 292 292 292 292 291 291 292 292 292 292 293 294 295 294 295 295 295 296 297 297 298 299 299 299 299 299 298 296 294 292 290
289 289 290 290 291 292 292 292 291 291 292 292 292 292 291 291 291 291 291 291 291 292 294 294 295 295 295 295 296 297 298 299 299 299 299 301 300 300 298 297 296 294 292
290 290 291 291 291 292 292 292 292 291 292 292 292 292 291 291 290 291 291 291 292 293 293 294 295 296 296 296 297 298 299 300 302 302 301 302 300 300 300 299 298 295 294
290 290 291 292 292 293 293 293 292 292 292 292 292 291 291 291 291 290 290 290 291 292 293 294 295 296 296 296 297 299 300 301 303 303 302 302 302 302 302 301 299 297 295
291 290 291 292 293 293 293 293 293 293 292 292 291 291 291 291 290 289 290 290 291 292 293 294 295 296 296 297 298 299 301 302 304 305 303 302 303 304 304 302 300 298 297
292 292 292 293 293 293 293 294 293 294 293 293 292 292 291 290 289 289 290 290 291 291 292 294 295 295 296 297 298 300 301 303 304 305 303 302 304 305 305 304 301 299 297
Height
5824 5823 5821 5820 5818 5816 5814 5812 5811 5808 5806 5804 5802 5800 5798 5795 5793 5791 5788 5786 5784 5782 5780 5778 5777 5776 5775 5774 5773 5773 5772 5772 5771 5772 5772 5773 5774 5775 5776 5778 5780 5782 5784
5817 5816 5814 5813 5811 5809 5807 5805 5803 5800 5798 5796 5793 5791 5788 5786 5783 5781 5778 5775 5773 5771 5768 5767 5765 5764 5762 5761 5760 5760 5759 5758 5758 5758 5758 5758 5759 5760 5761 5763 5765 5767 5770
5810 5808 5807 5804 5802 5800 5798 5796 5793 5791 5789 5786 5784 5781 5778 5775 5772 5770 5767 5764 5761 5758 5756 5754 5752 5750 5749 5748 5746 5745 5744 5744 5743 5743 5742 5743 5743 5744 5745 5746 5748 5750 5753
5802 5800 5798 5796 5793 5791 5789 5786 5783 5781 5778 5775 5773 5770 5767 5763 5760 5757 5754 5751 5748 5746 5743 5740 5738 5736 5734 5733 5731 5730 5729 5727 5727 5726 5725 5725 5725 5726 5727 5728 5730 5732 5734
5792 5791 5789 5786 5783 5781 5778 5775 5772 5769 5767 5764 5761 5758 5754 5751 5747 5744 5741 5737 5734 5731 5728 5726 5723 5721 5719 5717 5715 5713 5712 5710 5709 5708 5707 5707 5706 5707 5707 5708 5710 5711 5714
5782 5780 5778 5776 5773 5770 5767 5763 5760 5757 5754 5751 5748 5745 5741 5738 5734 5730 5727 5723 5719 5716 5713 5710 5708 5705 5702 5700 5698 5696 5694 5692 5690 5689 5688 5687 5686 5686 5686 5687 5688 5690 5692
5772 5769 5767 5764 5761 5758 5755 5751 5747 5744 5740 5736 5733 5731 5728 5724 5720 5716 5712 5708 5704 5700 5696 5693 5691 5688 5685 5683 5680 5678 5675 5673 5671 5669 5667 5666 5665 5664 5664 5664 5665 5666 5668
5761 5758 5755 5752 5749 5745 5742 5738 5734 5730 5726 5722 5718 5714 5712 5710 5706 5702 5698 5693 5688 5684 5680 5677 5674 5671 5668 5665 5662 5659 5656 5654 5651 5648 5646 5644 5643 5641 5640 5640 5640 5641 5643
5750 5747 5743 5739 5735 5732 5728 5724 5720 5715 5711 5708 5704 5699 5695 5692 5689 5688 5684 5680 5674 5669 5665 5661 5657 5653 5650 5647 5644 5640 5637 5634 5631 5628 5625 5623 5621 5619 5617 5616 5616 5616 5617
5736 5733 5729 5725 5721 5717 5714 5709 5705 5701 5696 5692 5688 5685 5680 5675 5671 5668 5667 5663 5658 5654 5649 5645 5641 5636 5632 5629 5625 5621 5618 5615 5611 5608 5604 5601 5599 5596 5594 5593 5591 5591 5590
5723 5719 5715 5710 5706 5702 5698 5694 5689 5685 5681 5676 5672 5668 5664 5659 5655 5650 5648 5645 5641 5637 5632 5629 5624 5619 5615 5611 5607 5603 5599 5595 5591 5588 5584 5581 5577 5574 5572 5569 5567 5565 5563
5709 5705 5700 5695 5691 5687 5682 5678 5673 5669 5665 5660 5655 5651 5647 5643 5639 5634 5630 5627 5623 5619 5615 5611 5607 5602 5597 5593 5589 5585 5581 5576 5572 5567 5563 5559 5556 5552 5548 5545 5541 5538 5535
5693 5690 5684 5680 5675 5671 5666 5661 5657 5652 5648 5644 5639 5635 5630 5627 5622 5618 5613 5609 5606 5602 5598 5594 5588 5583 5578 5575 5570 5566 5561 5556 5551 5547 5542 5538 5533 5529 5524 5520 5515 5510 5506
5677 5673 5668 5664 5660 5655 5650 5645 5640 5636 5631 5627 5623 5618 5613 5609 5605 5601 5596 5592 5588 5585 5581 5577 5570 5565 5560 5556 5551 5546 5542 5536 5531 5526 5520 5515 5510 5505 5499 5493 5487 5481 5475
5660 5656 5652 5648 5644 5639 5634 5628 5624 5620 5614 5610 5606 5601 5596 5592 5587 5583 5579 5574 5570 5566 5564 5560 5553 5547 5541 5536 5531 5526 5521 5515 5509 5504 5498 5492 5486 5479 5473 5466 5459 5452 5444
5644 5639 5635 5631 5627 5623 5618 5612 5608 5603 5597 5593 5588 5583 5579 5575 5570 5565 5561 5556 5552 5548 5545 5542 5535 5528 5522 5517 5511 5506 5500 5494 5488 5481 5475 5468 5461 5453 5446 5438 5430 5423 5415
5628 5623 5619 5614 5610 5606 5601 5596 5591 5586 5581 5576 5571 5566 5562 5557 5552 5547 5542 5538 5534 5529 5526 5524 5517 5510 5503 5497 5491 5485 5479 5473 5467 5459 5452 5444 5436 5428 5419 5411 5402 5395 5388
5613 5608 5603 5598 5593 5589 5584 5579 5574 5569 5564 5559 5553 5548 5544 5539 5534 5530 5525 5520 5515 5511 5507 5504 5499 5492 5485 5478 5472 5466 5459 5452 5446 5438 5429 5421 5412 5403 5394 5385 5376 5369 5361
5597 5592 5587 5582 5577 5572 5567 5562 5557 5552 5547 5542 5537 5532 5527 5521 5517 5512 5507 5502 5497 5492 5488 5485 5481 5474 5467 5459 5452 5446 5439 5432 5424 5416 5408 5399 5390 5380 5371 5361 5353 5345 5337
5581 5576 5571 5566 5561 5555 5550 5545 5540 5535 5530 5525 5520 5514 5509 5504 5499 5494 5489 5484 5479 5474 5470 5465 5461 5455 5449 5440 5432 5427 5420 5413 5404 5395 5387 5378 5368 5359 5349 5339 5331 5323 5315
5565 5559 5554 5549 5544 5539 5533 5527 5522 5517 5512 5507 5502 5497 5492 5486 5481 5476 5471 5466 5461 5456 5451 5447 5442 5436 5430 5422 5414 5407 5401 5394 5386 5375 5366 5358 5347 5339 5329 5319 5310 5302 5294
5548 5543 5538 5533 5528 5522 5516 5510 5505 5500 5495 5490 5485 5479 5474 5468 5463 5458 5453 5448 5443 5438 5433 5428 5423 5418 5411 5403 5395 5388 5381 5374 5368 5358 5345 5339 5327 5319 5310 5301 5292 5283 5275
5532 5527 5522 5516 5511 5505 5499 5493 5487 5483 5478 5473 5467 5461 5456 5451 5445 5440 5435 5429 5425 5420 5415 5410 5405 5399 5392 5385 5377 5370 5362 5354 5347 5337 5325 5320 5310 5301 5293 5284 5274 5265 5257
5515 5510 5505 5499 5494 5488 5481 5475 5469 5464 5460 5456 5450 5444 5438 5434 5428 5422 5417 5412 5407 5402 5397 5391 5387 5381 5373 5366 5358 5351 5343 5335 5329 5319 5306 5299 5293 5285 5277 5268 5257 5248 5240
5498 5492 5487 5482 5476 5470 5463 5457 5451 5446 5442 5437 5432 5426 5421 5416 5410 5404 5400 5395 5390 5385 5379 5373 5368 5362 5355 5348 5340 5332 5325 5317 5311 5304 5290 5280 5275 5268 5262 5253 5242 5232 5224
5480 5475 5470 5464 5458 5452 5445 5439 5433 5428 5424 5419 5414 5409 5403 5398 5392 5386 5382 5378 5374 5368 5362 5356 5351 5345 5338 5331 5323 5315 5307 5299 5293 5287 5278 5266 5259 5251 5247 5241 5229 5219 5211